UAL719 MMMX-KLAX

Flight info

Callsign UAL719
Flight time 1h 3m
Altitude 36000
Route ATURO2A ATURO UT134 ZCL DCT AVISU UT60 AXASA UT41 ASUTA DCT AMMOR OLAAA2
Aircraft B77W/H-SDE1E2E3FGHIJ2J3J4J5M1RWXY/LB1D1

Departure

Time 2026-05-08 04:01
Airport Mexico City Benito Juárez International Airport (MMMX)

Arrival

Time 2026-05-08 05:04
Airport Los Angeles International Airport (KLAX)
Time Latitude Longitude Altitude Speed Heading
2026-05-08 03:13 19.43580 -99.07989 7309 ft 0 kts 331°
2026-05-08 03:38 19.43566 -99.07980 7310 ft 2 kts 327°
2026-05-08 03:38 19.43552 -99.07970 7310 ft 2 kts 321°
2026-05-08 03:38 19.43540 -99.07958 7310 ft 2 kts 311°
2026-05-08 03:39 19.43531 -99.07944 7310 ft 2 kts 294°
2026-05-08 03:39 19.43527 -99.07927 7310 ft 2 kts 266°
2026-05-08 03:39 19.43530 -99.07911 7310 ft 2 kts 244°
2026-05-08 03:39 19.43533 -99.07905 7310 ft 0 kts 241°
2026-05-08 03:45 19.43527 -99.07916 7310 ft 7 kts 240°
2026-05-08 03:46 19.43475 -99.08008 7310 ft 19 kts 238°
2026-05-08 03:46 19.43426 -99.08082 7310 ft 6 kts 209°
2026-05-08 03:46 19.43414 -99.08085 7310 ft 0 kts 186°
2026-05-08 03:48 19.43384 -99.08079 7310 ft 11 kts 163°
2026-05-08 03:48 19.43332 -99.08020 7311 ft 11 kts 110°
2026-05-08 03:48 19.43324 -99.07936 7312 ft 11 kts 90°
2026-05-08 03:49 19.43325 -99.07853 7312 ft 11 kts 89°
2026-05-08 03:49 19.43326 -99.07767 7310 ft 11 kts 89°
2026-05-08 03:49 19.43326 -99.07698 7309 ft 3 kts 90°
2026-05-08 03:49 19.43326 -99.07697 7309 ft 0 kts 90°
2026-05-08 03:52 19.43327 -99.07669 7309 ft 13 kts 90°
2026-05-08 03:52 19.43337 -99.07514 7308 ft 24 kts 83°
2026-05-08 03:53 19.43328 -99.07344 7308 ft 22 kts 112°
2026-05-08 03:53 19.43273 -99.07222 7307 ft 17 kts 114°
2026-05-08 03:53 19.43274 -99.07100 7307 ft 17 kts 72°
2026-05-08 03:53 19.43329 -99.06991 7307 ft 17 kts 59°
2026-05-08 03:54 19.43390 -99.06885 7307 ft 17 kts 59°
2026-05-08 03:54 19.43441 -99.06774 7308 ft 17 kts 49°
2026-05-08 03:54 19.43539 -99.06708 7308 ft 17 kts 27°
2026-05-08 03:54 19.43614 -99.06615 7308 ft 17 kts 59°
2026-05-08 03:55 19.43674 -99.06509 7308 ft 17 kts 59°
2026-05-08 03:55 19.43734 -99.06402 7308 ft 17 kts 59°
2026-05-08 03:55 19.43793 -99.06295 7308 ft 17 kts 59°
2026-05-08 03:55 19.43853 -99.06189 7308 ft 17 kts 59°
2026-05-08 03:56 19.43912 -99.06082 7308 ft 17 kts 59°
2026-05-08 03:56 19.43973 -99.05976 7308 ft 17 kts 59°
2026-05-08 03:56 19.44033 -99.05871 7308 ft 17 kts 58°
2026-05-08 03:56 19.44091 -99.05763 7308 ft 17 kts 62°
2026-05-08 03:57 19.44150 -99.05656 7309 ft 17 kts 59°
2026-05-08 03:57 19.44210 -99.05549 7309 ft 17 kts 59°
2026-05-08 03:57 19.44270 -99.05442 7309 ft 17 kts 59°
2026-05-08 03:57 19.44330 -99.05336 7310 ft 17 kts 59°
2026-05-08 03:58 19.44384 -99.05261 7310 ft 12 kts 24°
2026-05-08 03:58 19.44423 -99.05264 7310 ft 0 kts 342°
2026-05-08 03:59 19.44425 -99.05265 7310 ft 2 kts 340°
2026-05-08 03:59 19.44484 -99.05299 7309 ft 14 kts 321°
2026-05-08 03:59 19.44495 -99.05393 7309 ft 16 kts 243°
2026-05-08 04:00 19.44372 -99.05615 7308 ft 64 kts 239°
2026-05-08 04:00 19.44030 -99.06224 7307 ft 126 kts 239°
2026-05-08 04:00 19.43483 -99.07190 7306 ft 177 kts 239°
2026-05-08 04:00 19.42812 -99.08433 7440 ft 201 kts 243°
2026-05-08 04:01 19.42112 -99.09709 8061 ft 200 kts 242°
2026-05-08 04:01 19.41414 -99.10993 8591 ft 208 kts 242°
2026-05-08 04:01 19.40688 -99.12340 9052 ft 212 kts 242°
2026-05-08 04:01 19.39925 -99.13767 9189 ft 233 kts 241°
2026-05-08 04:02 19.39111 -99.15293 9550 ft 239 kts 239°
2026-05-08 04:02 19.38294 -99.16826 10197 ft 240 kts 239°
2026-05-08 04:02 19.37483 -99.18378 10719 ft 241 kts 244°
2026-05-08 04:02 19.37138 -99.20121 11167 ft 248 kts 273°
2026-05-08 04:03 19.37532 -99.21938 11584 ft 260 kts 291°
2026-05-08 04:03 19.40105 -99.24712 12663 ft 277 kts 322°
2026-05-08 04:03 19.41659 -99.25928 13421 ft 279 kts 321°
2026-05-08 04:04 19.43209 -99.27185 14242 ft 281 kts 320°
2026-05-08 04:04 19.44759 -99.28468 14987 ft 283 kts 320°
2026-05-08 04:04 19.46318 -99.29769 15715 ft 286 kts 320°
2026-05-08 04:04 19.47907 -99.31056 16412 ft 289 kts 328°
2026-05-08 04:05 19.49814 -99.31738 16908 ft 301 kts 355°
2026-05-08 04:05 19.51977 -99.31801 17150 ft 324 kts 359°
2026-05-08 04:05 19.54298 -99.31812 17533 ft 342 kts 359°
2026-05-08 04:05 19.56729 -99.31826 18000 ft 357 kts 358°
2026-05-08 04:06 19.59274 -99.31860 18450 ft 373 kts 358°
2026-05-08 04:06 19.61929 -99.31906 18867 ft 388 kts 358°
2026-05-08 04:06 19.64680 -99.31915 19261 ft 401 kts
2026-05-08 04:06 19.67488 -99.31369 19440 ft 421 kts 15°
2026-05-08 04:07 19.70338 -99.30437 19855 ft 434 kts 18°
2026-05-08 04:07 19.73244 -99.29440 20359 ft 443 kts 18°
2026-05-08 04:07 19.76165 -99.28451 20921 ft 448 kts 17°
2026-05-08 04:07 19.79165 -99.27465 21470 ft 453 kts 17°
2026-05-08 04:08 19.82203 -99.26493 22030 ft 459 kts 17°
2026-05-08 04:08 19.85283 -99.25524 22605 ft 464 kts 17°
2026-05-08 04:08 19.88405 -99.24552 23178 ft 469 kts 17°
2026-05-08 04:08 19.91562 -99.23570 23772 ft 474 kts 17°
2026-05-08 04:09 19.94735 -99.22583 24256 ft 477 kts 17°
2026-05-08 04:09 19.97932 -99.21587 24739 ft 480 kts 17°
2026-05-08 04:09 20.01154 -99.20581 25236 ft 483 kts 17°
2026-05-08 04:09 20.04381 -99.19572 25734 ft 486 kts 17°
2026-05-08 04:10 20.07639 -99.18553 26249 ft 488 kts 17°
2026-05-08 04:10 20.10899 -99.17534 26788 ft 490 kts 17°
2026-05-08 04:10 20.14140 -99.16519 27334 ft 492 kts 17°
2026-05-08 04:10 20.17425 -99.15491 27890 ft 494 kts 17°
2026-05-08 04:11 20.20732 -99.14481 28471 ft 491 kts 13°
2026-05-08 04:11 20.24130 -99.14119 29015 ft 492 kts 355°
2026-05-08 04:11 20.27485 -99.14780 29616 ft 490 kts 339°
2026-05-08 04:11 20.30545 -99.16334 30214 ft 485 kts 327°
2026-05-08 04:12 20.32460 -99.17573 30581 ft 485 kts 326°
2026-05-08 04:12 20.36329 -99.20058 31280 ft 486 kts 327°
2026-05-08 04:12 20.39251 -99.21869 31821 ft 486 kts 327°
2026-05-08 04:12 20.41197 -99.23052 32179 ft 486 kts 327°
2026-05-08 04:13 20.44137 -99.24829 32733 ft 485 kts 327°
2026-05-08 04:13 20.46914 -99.26814 33277 ft 478 kts 318°
2026-05-08 04:13 20.49464 -99.29072 33881 ft 474 kts 315°
2026-05-08 04:13 20.52715 -99.32155 34555 ft 470 kts 314°
2026-05-08 04:14 20.54358 -99.33727 34891 ft 469 kts 314°
2026-05-08 04:14 20.56788 -99.36023 35423 ft 466 kts 315°
2026-05-08 04:14 20.59227 -99.38287 35915 ft 463 kts 315°
2026-05-08 04:14 20.61682 -99.40536 36005 ft 470 kts 315°
2026-05-08 04:15 20.76969 -99.54395 36191 ft 499 kts 316°
2026-05-08 04:15 20.98239 -99.73727 36153 ft 513 kts 315°
2026-05-08 04:15 21.15618 -99.96564 36014 ft 486 kts 298°
2026-05-08 04:16 21.45919 -100.43776 36024 ft 474 kts 300°
2026-05-08 04:16 21.75987 -100.90656 36078 ft 479 kts 300°
2026-05-08 04:17 22.06685 -101.38886 36040 ft 488 kts 300°
2026-05-08 04:17 22.21851 -101.62734 35905 ft 477 kts 299°
2026-05-08 04:17 22.36520 -101.85920 35891 ft 468 kts 299°
2026-05-08 04:18 22.51211 -102.09247 36008 ft 469 kts 298°
2026-05-08 04:18 22.66056 -102.32947 36064 ft 480 kts 298°
2026-05-08 04:18 22.81048 -102.56985 36183 ft 478 kts 297°
2026-05-08 04:18 22.95626 -102.80764 36141 ft 465 kts 296°
2026-05-08 04:19 23.09436 -103.04219 35938 ft 459 kts 296°
2026-05-08 04:19 23.23282 -103.27617 36078 ft 462 kts 295°
2026-05-08 04:19 23.37132 -103.51224 36098 ft 473 kts 295°
2026-05-08 04:19 23.51324 -103.75434 36093 ft 470 kts 295°
2026-05-08 04:20 23.65782 -103.99094 35908 ft 481 kts 304°
2026-05-08 04:20 23.84494 -104.19524 35976 ft 466 kts 305°
2026-05-08 04:20 24.02337 -104.39954 36176 ft 466 kts 305°
2026-05-08 04:20 24.20496 -104.60679 36291 ft 475 kts 305°
2026-05-08 04:21 24.38930 -104.81799 36142 ft 481 kts 304°
2026-05-08 04:21 24.57337 -105.03016 35872 ft 478 kts 304°
2026-05-08 04:21 24.75456 -105.23968 35861 ft 467 kts 304°
2026-05-08 04:21 24.93237 -105.44643 35942 ft 464 kts 303°
2026-05-08 04:22 25.29289 -105.86855 35964 ft 480 kts 303°
2026-05-08 04:22 25.65217 -106.29287 35942 ft 463 kts 303°
2026-05-08 04:23 25.82724 -106.50114 36085 ft 462 kts 302°
2026-05-08 04:23 26.00357 -106.71218 36198 ft 471 kts 302°
2026-05-08 04:23 26.36057 -107.14174 35895 ft 473 kts 302°
2026-05-08 04:24 26.53618 -107.35456 36160 ft 462 kts 302°
2026-05-08 04:24 26.71228 -107.56970 36263 ft 471 kts 302°
2026-05-08 04:24 26.88949 -107.78631 35987 ft 467 kts 302°
2026-05-08 04:24 27.06131 -107.99751 36122 ft 450 kts 301°
2026-05-08 04:25 27.40136 -108.41950 36163 ft 464 kts 301°
2026-05-08 04:25 27.74997 -108.85625 36004 ft 464 kts 302°
2026-05-08 04:26 27.92033 -109.07091 36166 ft 453 kts 302°
2026-05-08 04:26 28.08932 -109.28561 36193 ft 460 kts 303°
2026-05-08 04:26 28.26156 -109.50555 36047 ft 469 kts 304°
2026-05-08 04:26 28.43547 -109.72831 35978 ft 473 kts 305°
2026-05-08 04:27 28.77829 -110.17084 35856 ft 455 kts 305°
2026-05-08 04:27 29.11104 -110.60568 36010 ft 461 kts 306°
2026-05-08 04:28 29.44837 -111.05068 35765 ft 462 kts 306°
2026-05-08 04:28 29.61373 -111.27135 35859 ft 451 kts 307°
2026-05-08 04:28 29.77615 -111.48868 35916 ft 445 kts 308°
2026-05-08 04:29 30.10026 -111.92584 36005 ft 454 kts 308°
2026-05-08 04:29 30.43071 -112.37731 35923 ft 463 kts 310°
2026-05-08 04:30 30.76470 -112.83745 35915 ft 466 kts 311°
2026-05-08 04:30 31.09717 -113.30226 35876 ft 468 kts 312°
2026-05-08 04:31 31.42910 -113.77161 35844 ft 467 kts 312°
2026-05-08 04:31 31.76030 -114.24088 35836 ft 466 kts 312°
2026-05-08 04:32 32.08870 -114.70668 35802 ft 458 kts 312°
2026-05-08 04:32 32.24895 -114.93590 35762 ft 446 kts 312°
2026-05-08 04:32 32.39902 -115.17020 35877 ft 454 kts 304°
2026-05-08 04:33 32.67154 -115.68808 35922 ft 469 kts 304°
2026-05-08 04:33 32.75574 -115.84868 35863 ft 454 kts 304°
2026-05-08 04:34 32.77217 -115.88013 35858 ft 443 kts 304°
2026-05-08 04:34 32.78848 -115.91129 35889 ft 445 kts 304°
2026-05-08 04:34 32.82090 -115.97392 35868 ft 444 kts 304°
2026-05-08 04:35 32.85244 -116.03693 35906 ft 443 kts 303°
2026-05-08 04:35 32.88364 -116.09953 35898 ft 442 kts 303°
2026-05-08 04:36 32.91507 -116.16245 35917 ft 442 kts 303°
2026-05-08 04:36 32.93076 -116.19384 35801 ft 439 kts 303°
2026-05-08 04:36 32.94633 -116.22503 35350 ft 437 kts 303°
2026-05-08 04:37 32.96186 -116.25617 34793 ft 436 kts 303°
2026-05-08 04:37 32.97732 -116.28717 34328 ft 434 kts 304°
2026-05-08 04:37 32.99251 -116.31769 33866 ft 431 kts 304°
2026-05-08 04:37 33.00772 -116.34826 33369 ft 428 kts 304°
2026-05-08 04:38 33.02282 -116.37862 32903 ft 424 kts 304°
2026-05-08 04:38 33.03781 -116.40880 32481 ft 421 kts 304°
2026-05-08 04:38 33.05243 -116.43898 31985 ft 420 kts 301°
2026-05-08 04:38 33.06501 -116.47045 31512 ft 420 kts 297°
2026-05-08 04:39 33.07644 -116.50245 31077 ft 418 kts 295°
2026-05-08 04:39 33.08764 -116.53425 30650 ft 415 kts 296°
2026-05-08 04:39 33.09903 -116.56585 30224 ft 413 kts 296°
2026-05-08 04:39 33.11059 -116.59711 29745 ft 411 kts 296°
2026-05-08 04:40 33.12219 -116.62814 29287 ft 408 kts 296°
2026-05-08 04:40 33.13342 -116.65914 28825 ft 406 kts 292°
2026-05-08 04:40 33.14052 -116.69174 28314 ft 405 kts 283°
2026-05-08 04:40 33.14513 -116.72441 27859 ft 403 kts 281°
2026-05-08 04:41 33.14932 -116.75749 27417 ft 401 kts 281°
2026-05-08 04:41 33.15349 -116.79026 26983 ft 398 kts 281°
2026-05-08 04:41 33.15784 -116.82286 26546 ft 396 kts 282°
2026-05-08 04:41 33.16233 -116.85517 26131 ft 393 kts 282°
2026-05-08 04:42 33.16683 -116.88684 25716 ft 390 kts 282°
2026-05-08 04:42 33.17144 -116.91873 25308 ft 389 kts 282°
2026-05-08 04:42 33.17605 -116.95043 24903 ft 387 kts 282°
2026-05-08 04:42 33.18063 -116.98200 24498 ft 385 kts 282°
2026-05-08 04:43 33.18518 -117.01334 24127 ft 382 kts 282°
2026-05-08 04:43 33.18971 -117.04464 23748 ft 380 kts 282°
2026-05-08 04:43 33.19419 -117.07566 23327 ft 378 kts 282°
2026-05-08 04:43 33.19863 -117.10642 22900 ft 375 kts 282°
2026-05-08 04:44 33.20303 -117.13706 22483 ft 373 kts 282°
2026-05-08 04:44 33.20734 -117.16705 22069 ft 370 kts 282°
2026-05-08 04:44 33.21168 -117.19732 21698 ft 368 kts 282°
2026-05-08 04:44 33.21599 -117.22742 21311 ft 365 kts 282°
2026-05-08 04:45 33.22024 -117.25711 20925 ft 362 kts 282°
2026-05-08 04:45 33.22445 -117.28666 20551 ft 359 kts 282°
2026-05-08 04:45 33.22864 -117.31606 20166 ft 357 kts 282°
2026-05-08 04:45 33.23299 -117.34519 19794 ft 355 kts 282°
2026-05-08 04:46 33.23754 -117.37417 19421 ft 353 kts 282°
2026-05-08 04:46 33.24202 -117.40254 19070 ft 351 kts 282°
2026-05-08 04:46 33.24652 -117.43112 18698 ft 349 kts 282°
2026-05-08 04:46 33.25096 -117.45950 18336 ft 347 kts 282°
2026-05-08 04:47 33.25534 -117.48771 17922 ft 345 kts 282°
2026-05-08 04:47 33.25971 -117.51586 17476 ft 343 kts 282°
2026-05-08 04:47 33.26663 -117.54284 16890 ft 339 kts 300°
2026-05-08 04:47 33.27924 -117.56656 16264 ft 338 kts 305°
2026-05-08 04:48 33.29225 -117.58978 15595 ft 335 kts 305°
2026-05-08 04:48 33.30513 -117.61301 14960 ft 337 kts 305°
2026-05-08 04:48 33.31810 -117.63663 14345 ft 344 kts 304°
2026-05-08 04:48 33.33129 -117.66084 13748 ft 350 kts 304°
2026-05-08 04:49 33.34444 -117.68516 13404 ft 345 kts 304°
2026-05-08 04:49 33.35720 -117.70887 13114 ft 331 kts 304°
2026-05-08 04:49 33.36946 -117.73171 12648 ft 322 kts 304°
2026-05-08 04:49 33.38135 -117.75386 12078 ft 317 kts 304°
2026-05-08 04:50 33.39319 -117.77593 11506 ft 313 kts 304°
2026-05-08 04:50 33.40494 -117.79785 10950 ft 313 kts 304°
2026-05-08 04:50 33.41661 -117.81964 10627 ft 304 kts 304°
2026-05-08 04:50 33.42776 -117.84048 10308 ft 291 kts 304°
2026-05-08 04:51 33.43850 -117.86054 9974 ft 280 kts 303°
2026-05-08 04:51 33.44884 -117.87987 9736 ft 274 kts 303°
2026-05-08 04:51 33.45922 -117.89927 9565 ft 278 kts 303°
2026-05-08 04:51 33.46969 -117.91879 9367 ft 277 kts 305°
2026-05-08 04:52 33.48289 -117.93452 9180 ft 272 kts 330°
2026-05-08 04:52 33.50013 -117.94312 9017 ft 267 kts 341°
2026-05-08 04:52 33.51773 -117.95056 8845 ft 268 kts 340°
2026-05-08 04:52 33.53536 -117.95812 8666 ft 270 kts 340°
2026-05-08 04:53 33.55309 -117.96576 8494 ft 271 kts 340°
2026-05-08 04:53 33.57083 -117.97344 8314 ft 271 kts 339°
2026-05-08 04:53 33.58857 -117.98114 8146 ft 271 kts 339°
2026-05-08 04:53 33.60634 -117.98886 7959 ft 270 kts 339°
2026-05-08 04:54 33.62363 -117.99638 7790 ft 266 kts 339°
2026-05-08 04:54 33.64135 -118.00321 7598 ft 262 kts 342°
2026-05-08 04:54 33.65851 -118.00934 7437 ft 259 kts 342°
2026-05-08 04:54 33.67575 -118.01553 7268 ft 258 kts 342°
2026-05-08 04:55 33.69291 -118.02174 7125 ft 257 kts 342°
2026-05-08 04:55 33.71006 -118.02798 7069 ft 258 kts 341°
2026-05-08 04:55 33.72721 -118.03423 7016 ft 253 kts 341°
2026-05-08 04:55 33.74366 -118.04023 6986 ft 240 kts 341°
2026-05-08 04:56 33.75918 -118.04589 6939 ft 227 kts 341°
2026-05-08 04:56 33.77440 -118.05147 6966 ft 231 kts 341°
2026-05-08 04:56 33.78968 -118.05741 6890 ft 233 kts 338°
2026-05-08 04:56 33.80486 -118.06464 6580 ft 234 kts 336°
2026-05-08 04:57 33.81989 -118.07203 6299 ft 231 kts 336°
2026-05-08 04:57 33.83471 -118.07926 6017 ft 228 kts 336°
2026-05-08 04:57 33.84919 -118.08627 5755 ft 225 kts 337°
2026-05-08 04:57 33.86363 -118.09323 5474 ft 222 kts 337°
2026-05-08 04:58 33.87788 -118.10008 5213 ft 218 kts 338°
2026-05-08 04:58 33.89182 -118.10678 5070 ft 211 kts 338°
2026-05-08 04:58 33.90533 -118.11328 5019 ft 208 kts 338°
2026-05-08 04:58 33.91843 -118.11957 4975 ft 198 kts 338°
2026-05-08 04:59 33.93117 -118.12570 4966 ft 196 kts 338°
2026-05-08 04:59 33.94381 -118.13182 4755 ft 194 kts 334°
2026-05-08 04:59 33.95117 -118.13785 4440 ft 196 kts 312°
2026-05-08 04:59 33.95643 -118.15292 3976 ft 201 kts 276°
2026-05-08 05:00 33.95660 -118.16966 3636 ft 199 kts 272°
2026-05-08 05:00 33.95657 -118.18620 3604 ft 198 kts 270°
2026-05-08 05:00 33.95560 -118.20285 3594 ft 198 kts 265°
2026-05-08 05:00 33.95406 -118.21902 3606 ft 194 kts 264°
2026-05-08 05:01 33.95242 -118.23505 3595 ft 191 kts 265°
2026-05-08 05:01 33.95081 -118.25082 3602 ft 189 kts 265°
2026-05-08 05:01 33.94910 -118.26666 3450 ft 195 kts 263°
2026-05-08 05:01 33.94721 -118.28265 3102 ft 187 kts 264°
2026-05-08 05:02 33.94606 -118.29793 2529 ft 181 kts 265°
2026-05-08 05:02 33.94467 -118.31301 1871 ft 180 kts 261°
2026-05-08 05:02 33.94291 -118.32791 1212 ft 179 kts 262°
2026-05-08 05:02 33.94150 -118.34219 847 ft 165 kts 262°
2026-05-08 05:03 33.94017 -118.35527 611 ft 149 kts 262°
2026-05-08 05:03 33.93897 -118.36695 418 ft 141 kts 262°
2026-05-08 05:03 33.93782 -118.37873 237 ft 144 kts 261°
2026-05-08 05:03 33.93661 -118.39057 132 ft 137 kts 261°
2026-05-08 05:04 33.93555 -118.40054 131 ft 99 kts 263°
2026-05-08 05:04 33.93491 -118.40665 129 ft 42 kts 263°
2026-05-08 05:04 33.93487 -118.40995 131 ft 28 kts 283°
2026-05-08 05:04 33.93536 -118.41182 125 ft 16 kts 287°
2026-05-08 05:05 33.93544 -118.41228 128 ft 0 kts 275°
2026-05-08 05:08 33.93542 -118.41256 126 ft 8 kts 265°
2026-05-08 05:08 33.93533 -118.41349 127 ft 12 kts 263°
2026-05-08 05:08 33.93522 -118.41450 126 ft 12 kts 263°
2026-05-08 05:09 33.93512 -118.41553 127 ft 12 kts 263°
2026-05-08 05:09 33.93502 -118.41655 131 ft 12 kts 263°
2026-05-08 05:09 33.93491 -118.41757 129 ft 12 kts 263°
2026-05-08 05:09 33.93500 -118.41858 126 ft 12 kts 296°
2026-05-08 05:10 33.93567 -118.41918 126 ft 13 kts 345°
2026-05-08 05:10 33.93691 -118.41833 131 ft 13 kts 81°
2026-05-08 05:10 33.93702 -118.41721 131 ft 14 kts 83°
2026-05-08 05:11 33.93713 -118.41608 127 ft 14 kts 83°
2026-05-08 05:11 33.93725 -118.41496 126 ft 14 kts 83°
2026-05-08 05:11 33.93737 -118.41383 129 ft 13 kts 83°
2026-05-08 05:11 33.93740 -118.41354 126 ft 0 kts 83°
2026-05-08 05:12 33.93742 -118.41334 129 ft 5 kts 83°
2026-05-08 05:12 33.93746 -118.41287 128 ft 6 kts 83°
2026-05-08 05:12 33.93752 -118.41233 126 ft 7 kts 83°
2026-05-08 05:12 33.93769 -118.41176 127 ft 7 kts 47°
2026-05-08 05:13 33.93820 -118.41160 128 ft 8 kts
2026-05-08 05:13 33.93879 -118.41165 128 ft 9 kts 354°
2026-05-08 05:13 33.93942 -118.41173 127 ft 10 kts 353°
2026-05-08 05:13 33.94003 -118.41166 126 ft 7 kts 54°
2026-05-08 05:14 33.94021 -118.41106 126 ft 8 kts 82°
2026-05-08 05:14 33.94024 -118.41084 127 ft 0 kts 82°